Simultaneous Nadir Overpasses (SNOs) Predictions

Prediction of SNOs between GOES-16 and METOP-B Satellite Orbit:

Table of predicted SNOs for the next 14.0 days since TLE Epoch: 4/10/2020
Index Date Time (GOES-16) GOES-16 Lat,Lon METOP-B Lat,Lon Distance(km) Time Diff (sec)
1 04/11/2020 02:46:48 -0.01, -75.19 -0.78, -78.61 389.60 80
2 04/12/2020 02:23:29 -0.01, -75.19 0.32, -73.61 178.70 80
3 04/13/2020 14:42:21 0.01, -75.20 0.69, -78.18 339.29 80
4 04/14/2020 14:24:22 0.01, -75.20 -0.41, -73.18 229.36 80
5 04/16/2020 02:43:22 -0.01, -75.17 -0.62, -77.78 297.59 80
6 04/17/2020 02:20:04 -0.01, -75.17 0.53, -72.79 271.51 80
7 04/18/2020 14:38:55 0.01, -75.20 0.52, -77.35 245.08 80
8 04/19/2020 14:20:56 0.01, -75.21 -0.64, -72.36 324.58 80
9 04/21/2020 02:39:57 -0.01, -75.19 -0.40, -76.96 200.88 80
10 04/22/2020 02:16:37 -0.01, -75.20 0.70, -71.96 369.10 80
11 04/23/2020 14:35:30 0.01, -75.24 0.28, -76.53 146.27 80
12 04/24/2020 14:17:30 0.01, -75.25 -0.82, -71.53 423.99 80




NCC Satellite Simultaneous Nadir Overpasses (SNOs) Prediction Service
